Other Public Products
Issued by NWS Grand Forks, ND

Home | Current Version | Previous Version | Graphics & Text | Print | Product List | Glossary On
Versions: 1 2 3 4 5 6 7 8 9 10 11 12 13 14 15 16 17 18 19 20 21 22 23 24 25 26 27 28 29 30 31 32 33 34 35 36 37 38 39 40 41 42 43 44 45 46 47 48 49 50
000
FPUS83 KFGF 220231
OPUFGF
PRAIRIE TO PINES WEATHER ROUNDUP
NATIONAL WEATHER SERVICE EASTERN NORTH DAKOTA/GRAND FORKS ND
900 PM CDT TUE OCT 21 2014

 **SATELLITE DATA USED TO AUGMENT SKY COVER AT AUTOMATED STATIONS**
 *****  WEATHER ACROSS EASTERN NORTH DAKOTA  *****

CITY           SKY/WX    TMP DP  RH WIND       PRES   REMARKS
GRAND FORKS    CLEAR     57  41  55 S21G36    29.85S
GRAND FORKS AF CLEAR     56  42  59 S20G30    29.84S
GRAND CITY NWS   N/A     54 N/A N/A SE26        N/A
BUXTON           N/A     56  41  57 SE24        N/A
DEVILS LAKE    CLEAR     61  43  51 S23G30    29.74R
FARGO          CLEAR     58  41  53 SE23G36   29.91R
WAHPETON ARPT  CLEAR     55  37  50 SE21G26   29.96S
$$

 *****  WEATHER ACROSS CENTRAL AND WESTERN NORTH DAKOTA  *****

CITY           SKY/WX    TMP DP  RH WIND       PRES   REMARKS
JAMESTOWN      CLEAR     60  43  53 SE18G26   29.79R
BISMARCK       CLEAR     67  43  41 SE12      29.68R
MINOT          CLEAR     58  45  62 SE8       29.60S
MINOT AFB      CLEAR     53  47  80 SE8       29.59S
GARRISON         N/A     62  49  62 SE7       29.62S
WILLISTON      PTCLDY    55  43  63 CALM      29.58R
DICKINSON      CLEAR     58  44  60 S9        29.61S
HETTINGER      PTCLDY    65  44  46 S10       29.66S
$$

 *****  OTHER OBSERVATIONS NORTHEAST NORTH DAKOTA  *****

CITY           SKY/WX    TMP DP  RH WIND       PRES   REMARKS
WALHALLA         N/A     57  41  54 S22G28    29.78S
LANGDON        FAIR      55  41  58 S25G33    29.77S
CAVALIER       FAIR      55  41  58 S16G23    29.81S
GRAFTON        FAIR      55  41  58 S21G26    29.84R
CANDO          FAIR      57  45  62 SE17      29.73S
FORT TOTTEN      N/A     61  43  51 S17       29.95S
ROLLA          FAIR      55  43  62 S16       29.72S
RUGBY          FAIR      64  45  48 SE22G31   29.66S
 ***** THE ABOVE OBSERVATIONS ARE NON NWS ARE NOT QUALITY
        CONTROLLED AND MAY MIS-REPORT RAIN FOR SNOW...
$$

 *****  OTHER OBSERVATIONS SOUTHEAST NORTH DAKOTA *****

CITY           SKY/WX    TMP DP  RH WIND       PRES   REMARKS
COOPERSTOWN    NOT AVBL
VALLEY CITY    FAIR      57  41  54 SE18G26   29.85S
OAKES            N/A     63  46  55 SE21G26   29.86R
GWINNER        CLEAR     59  41  51 SE21G29   29.89R
SHEYENNE NWR     N/A     58  40  51 SE16      29.95
BUFFALO          N/A     58  34  40 SE22        N/A
WYNDMERE         N/A     59  41  51 SE15        N/A
 ***** THE ABOVE OBSERVATIONS ARE NON NWS ARE NOT QUALITY
       CONTROLLED AND MAY MIS-REPORT RAIN FOR SNOW...
$$

  *****  WEATHER ACROSS NORTHERN MINNESOTA  *****

CITY           SKY/WX    TMP DP  RH WIND       PRES   REMARKS
FLAG ISLAND    CLEAR     48  39  71 SE25G31   29.96S
WARROAD        CLEAR     50  39  66 SE15G21   29.96S
ROSEAU         CLEAR     52  39  62 SE15G23   29.93S
HALLOCK        CLEAR     54  39  58 SE18      29.85S
THF RVR FALLS  CLEAR     54  37  54 SE18G24   29.92F
HALSTAD          N/A     55  37  50 S20         N/A
FOSSTON        CLEAR     52  37  58 SE16G23   29.97S
BAUDETTE       CLEAR     46  36  68 SE10G20   30.01R
WASKISH        CLEAR     48  37  66 SE12G20   30.03R
CROOKSTON      CLEAR     55  39  54 S25G33    29.90S
$$
  *****  WEATHER ACROSS CENTRAL AND WEST MINNESOTA  *****

CITY           SKY/WX    TMP DP  RH WIND       PRES   REMARKS
BEMIDJI        CLEAR     48  38  66 SE16G23   30.04R
PARK RAPIDS    CLEAR     49  38  65 SE16      30.05S
WADENA         CLEAR     48  39  71 SE14      30.05S
DETROIT LAKES  CLEAR     50  41  71 SE17G23   30.01R
MOORHEAD       CLEAR     57  43  58 SE24G31   29.93R
FERGUS FALLS   CLEAR     54  37  54 SE22G28   30.00R
ELBOW LAKE     FAIR      53  40  62 SE18      30.00R
MORRIS MN      CLEAR     54  41  62 SE18G24   30.00S
STAPLES        CLEAR     48  37  66 SE10G16   30.08S
WHEATON        CLEAR     54  39  58 SE21      29.98R
$$
  *****  WEATHER ELSEWHERE ACROSS MINNESOTA  *****

CITY           SKY/WX    TMP DP  RH WIND       PRES   REMARKS
DULUTH         CLEAR     40  36  86 E15       30.19R
INTRNTL FALLS  CLEAR     40  34  79 SE10      30.09R
ELY            CLEAR     34  32  93 SE8       30.18S
CLOQUET        CLEAR     39  37  93 E6        30.19R
BRAINERD       CLEAR     47  38  71 SE8       30.12S
HIBBING        CLEAR     36  32  85 SE7       30.17R
ALEXANDRIA     CLEAR     51  41  68 SE16      30.06S
SAINT CLOUD    CLEAR     50  38  63 E7        30.12S
MINNEAPOLIS    CLEAR     50  38  63 SE13      30.16R
$$

  *****  WEATHER ACROSS SOUTH DAKOTA  *****

CITY           SKY/WX    TMP DP  RH WIND       PRES   REMARKS
SIOUX FALLS    CLEAR     61  42  49 SE15G22   30.00R
BROOKINGS      NOT AVBL
WATERTOWN      CLEAR     60  42  51 SE15      29.95R
HURON          CLEAR     64  42  44 SE12G18   29.89R
SISSETON         N/A     58  41  53 S14       29.93S
ABERDEEN       CLEAR     66  45  46 SE18      29.85R
MITCHELL       CLEAR     65  44  46 SE13      29.92R
PIERRE         PTCLDY    68  37  32 SE18      29.77R
MOBRIDGE       MOCLDY    69  40  34 SE17      29.71R
RAPID CITY     PTCLDY    64  44  48 SW7       29.76R
$$

  *****  SOME WEATHER IN NEARBY STATES *****

CITY           SKY/WX    TMP DP  RH WIND       PRES   REMARKS
GLASGOW MT     MOCLDY    57  44  62 NW9       29.65R
GREAT FALLS MT CLOUDY    44  41  89 SW14      29.85R
CHEYENNE WY    CLOUDY    58  36  43 W7        29.98R
SCOTTSBLUFF NE MOCLDY    57  44  62 NE6       29.85F
OMAHA NE       CLEAR     61  39  44 SE13      30.06R
DES MOINES IA  CLEAR     57  41  55 SE12      30.15R
DAVENPORT IA   CLEAR     44  36  73 E9        30.24R
CHICAGO IL     MOCLDY    47  37  68 N7        30.26R
EAU CLAIRE WI  CLEAR     45  35  68 E8        30.22R
LA CROSSE WI   CLEAR     47  36  65 SE8       30.23R
$$

  *****  SOME NATIONAL WEATHER *****

CITY           SKY/WX    TMP DP  RH WIND       PRES   REMARKS
LA GUARDIA NY  MOCLDY    59  54  83 N9        29.90R
RALEIGH NC     MOCLDY    61  40  45 VRB5      29.94R
ATLANTA GA     CLEAR     62  47  57 N8        30.01R
NEW ORLEANS LA CLEAR     69  57  65 CALM      30.01R
OKLAHOMA CITY  CLEAR     66  58  75 S5        30.05R
ALBUQUERQUE NM PTCLDY    61  47  59 S6        30.08R
SALT LAKE CITY MOCLDY    56  29  35 N3        30.04R
LOS ANGELES CA PTCLDY    68  64  87 W9        29.85R
BOISE ID       CLEAR     50  39  66 SE8       30.04S
SEATTLE WA     CLOUDY    59  47  64 S12       29.87F
$$

*** WEATHER ACROSS MANITOBA...SASKATCHEWAN AND ONTARIO ***
                ***ONTARIO***

CITY           SKY/WX    TMP DP  RH WIND       PRES   REMARKS
GERALDTON      CLEAR     30  28  93 S5        30.27S
THUNDER BAY    PTCLDY    32  30  93 NE3       30.28S
SIOUX LOOKOUT  CLEAR     39  34  81 S13       30.11R
TORONTO        CLOUDY    43  39  87 N20G28    30.14R
BIG TROUT LK   CLEAR     43  36  75 S15G22    29.99S
PICKLE LAKE    CLEAR     39  30  70 S13G18    30.08F
DRYDEN         CLEAR     39  36  87 S16G28    30.07F
KENORA         CLEAR     43  36  75 S16       29.99S
$$
                *** MANITOBA***

CITY           SKY/WX    TMP DP  RH WIND       PRES   REMARKS
BRANDON        CLEAR     57  43  58 E13       29.68F
DAUPHIN        CLEAR     52  43  71 E10       29.66F
ISLAND LAKE    CLEAR     46  37  71 S14G21    29.81S
PILOT MOUND      N/A     57  41  54 SE22G30     N/A
THE PAS        CLEAR     48  43  81 S16G23    29.57S
THOMPSON       CLEAR     50  43  76 S12G18    29.62S
WINNIPEG       PTCLDY    54  39  58 SE23G30   29.82S
LYNN LAKE      CLEAR     45  41  87 E3        29.53F
CHURCHILL      CLOUDY    41  39  93 SW5       29.62S
GILLAM         CLEAR     50  39  66 S12       29.66
$$
                ***SASKATCHEWAN***

CITY           SKY/WX    TMP DP  RH WIND       PRES   REMARKS
ESTEVAN        PTCLDY    50  43  76 E8        29.59S
KINDERSLEY     CLOUDY    52  43  71 NW13G20   29.63R
LLOYDMINSTER   MOCLDY    50  37  62 NW8       29.67R
PRINCE ALBERT  CLOUDY    52  43  71 N3        29.53S
REGINA         MOCLDY    55  45  67 SE14      29.57S



USA.gov is the U.S. government's official web portal to all federal, state and local government web resources and services.